Temp
47 47 48 47 48 48 48 48 48 48 48 49 50 50 51 51 50 50 50 50 51 51 51 51 50 50 50 51 50 50 49 48 46 45 47 49 49 48 46 46 46 46
46 46 46 47 47 47 47 48 48 48 48 49 49 50 50 50 50 50 50 50 50 50 51 51 50 50 50 50 49 49 49 49 48 49 49 48 48 47 46 46 45 46
45 45 46 46 47 47 47 48 48 48 48 48 49 50 50 49 49 49 50 50 50 50 50 50 50 49 49 49 49 47 46 47 48 49 48 47 47 46 46 46 46 45
45 46 46 46 47 47 47 47 47 47 47 47 47 48 49 49 48 48 48 47 49 50 49 49 49 49 49 49 48 46 45 45 44 43 44 46 46 46 46 46 45 45
44 45 45 46 46 46 46 46 46 46 46 47 47 47 47 47 46 46 46 46 46 48 48 49 49 48 48 47 47 46 45 45 45 44 41 43 45 45 45 45 44 44
43 44 45 45 45 45 46 46 47 46 46 45 46 45 47 47 46 45 45 45 44 45 46 46 47 47 46 46 44 44 44 42 43 46 45 45 45 45 44 44 44 43
42 42 43 43 43 44 45 46 46 45 46 46 44 44 45 45 45 45 45 45 45 44 45 45 45 45 44 44 44 43 43 43 43 44 43 43 43 43 44 44 44 44
42 42 42 42 43 43 43 44 44 44 44 43 43 44 43 44 45 45 44 44 44 45 45 45 45 47 44 44 43 43 44 45 45 43 44 44 44 44 44 43 43 43
41 40 41 41 41 41 41 41 42 41 41 42 42 42 42 43 45 44 44 44 43 42 44 44 44 44 44 44 43 44 44 44 44 43 43 42 42 43 43 43 42 42
39 39 38 39 39 40 40 40 40 40 39 41 41 41 41 41 44 45 43 43 42 42 42 42 43 43 43 43 44 44 44 44 43 43 43 43 43 44 44 43 42 41
37 36 37 38 38 38 39 39 39 39 39 40 40 40 40 40 41 42 43 43 42 42 42 42 42 43 43 42 42 43 43 43 43 43 42 42 42 42 42 43 42 42
36 36 37 37 38 38 38 38 38 38 39 39 39 41 40 40 40 41 42 42 42 42 42 42 42 42 43 43 43 43 42 43 43 42 42 42 42 42 42 43 42 42
36 36 37 36 37 37 37 37 38 38 38 40 39 40 41 40 39 41 42 42 43 43 42 42 43 42 42 42 43 43 42 42 42 42 42 42 42 42 43 43 43 42
36 36 35 36 36 36 37 37 37 37 39 40 39 39 40 41 41 41 42 42 43 43 43 43 43 43 43 43 42 42 41 41 41 41 41 41 41 41 41 41 42 41
35 34 34 35 35 36 36 37 37 37 38 38 39 40 41 41 42 42 41 41 42 42 43 42 42 42 42 42 42 42 43 42 42 41 41 40 40 40 40 40 40 41
35 35 35 35 35 36 36 36 37 37 37 38 39 39 40 40 39 40 40 40 41 41 42 42 42 42 40 41 41 41 41 42 42 41 41 41 40 40 40 40 40 40
35 35 35 35 36 35 35 36 36 37 37 37 38 38 38 38 38 38 39 40 40 40 41 42 42 42 40 42 42 42 41 40 40 40 40 39 39 39 38 38 39 39
34 34 34 35 34 35 35 36 35 35 36 36 37 37 37 37 37 38 39 39 40 40 40 41 42 41 42 42 42 42 41 40 40 40 40 40 39 39 40 39 39 39
34 34 35 35 35 35 35 35 35 35 35 35 36 37 36 36 37 37 38 38 39 39 39 40 40 42 42 42 42 42 42 41 40 40 39 39 39 39 39 39 38 37
34 34 35 35 35 34 34 34 34 35 35 35 35 35 35 36 36 36 37 37 38 38 39 39 40 41 42 42 42 42 42 41 40 40 39 39 40 40 40 40 40 40
34 34 34 35 35 34 34 34 34 34 35 35 35 35 35 36 36 36 36 36 37 38 38 38 40 41 42 42 42 42 42 41 40 39 39 39 39 39 40 40 40 40
34 34 34 34 35 34 34 34 34 34 35 35 34 34 35 35 35 35 36 36 36 36 37 37 39 41 41 42 42 42 42 40 39 38 38 38 38 38 38 38 37 37
34 34 34 34 35 35 35 35 35 35 35 34 34 34 34 35 35 35 36 36 36 36 36 36 37 39 41 41 41 42 41 39 37 37 37 37 37 38 38 38 38 37
33 33 33 33 34 34 35 35 35 35 34 35 34 35 34 35 35 35 35 35 35 35 36 36 36 37 39 40 41 41 40 37 37 37 36 36 36 37 38 37 37 36
32 32 32 32 33 33 34 34 35 35 36 34 34 34 35 35 35 35 35 35 35 35 35 35 36 36 39 40 40 41 40 37 37 37 36 36 36 36 36 36 36 35
31 31 32 32 32 33 33 34 34 34 34 34 34 33 34 34 34 34 34 35 35 35 35 35 35 35 36 39 39 40 40 38 38 36 35 35 36 36 36 35 34 34
MSLP
1019.29 1019.39 1019.41 1019.49 1019.47 1019.53 1019.61 1019.75 1019.83 1019.91 1019.93 1020.03 1020.11 1020.15 1020.27 1020.27 1020.51 1020.63 1020.63 1020.67 1020.67 1020.75 1020.85 1021.01 1021.21 1021.41 1021.57 1021.75 1022.03 1022.29 1022.55 1022.73 1023.01 1023.21 1023.17 1023.33 1023.43 1023.49 1023.57 1023.71 1023.93 1024.05
1018.99 1019.05 1019.15 1019.25 1019.31 1019.39 1019.41 1019.45 1019.53 1019.63 1019.65 1019.73 1019.77 1019.89 1019.97 1020.15 1020.23 1020.33 1020.35 1020.43 1020.47 1020.51 1020.55 1020.69 1020.89 1021.07 1021.21 1021.35 1021.61 1021.97 1022.21 1022.37 1022.45 1022.57 1022.79 1022.79 1022.75 1022.99 1023.15 1023.31 1023.59 1023.75
1018.77 1018.85 1018.87 1018.89 1018.91 1018.99 1019.09 1019.21 1019.29 1019.39 1019.45 1019.43 1019.53 1019.63 1019.73 1019.89 1020.03 1020.11 1020.11 1020.07 1020.13 1020.19 1020.33 1020.39 1020.55 1020.71 1020.83 1020.93 1021.17 1021.51 1021.69 1021.79 1021.87 1021.89 1022.11 1022.21 1022.35 1022.51 1022.51 1022.83 1023.11 1023.29
1018.53 1018.51 1018.53 1018.59 1018.67 1018.73 1018.87 1019.03 1019.11 1019.19 1019.25 1019.31 1019.33 1019.37 1019.47 1019.57 1019.77 1019.83 1019.87 1019.97 1019.91 1019.87 1019.97 1020.07 1020.13 1020.35 1020.55 1020.65 1020.85 1021.13 1021.27 1021.41 1021.47 1021.75 1021.97 1022.01 1022.13 1022.23 1022.37 1022.49 1022.61 1022.93
1018.25 1018.37 1018.45 1018.47 1018.51 1018.57 1018.69 1018.79 1018.83 1018.93 1018.99 1018.95 1019.07 1019.19 1019.33 1019.41 1019.49 1019.59 1019.69 1019.77 1019.85 1019.83 1019.77 1019.73 1019.75 1019.89 1020.13 1020.35 1020.51 1020.75 1021.01 1021.15 1021.27 1021.47 1021.71 1021.81 1021.73 1021.85 1021.89 1022.27 1022.41 1022.51
1018.15 1018.25 1018.31 1018.37 1018.35 1018.43 1018.49 1018.47 1018.51 1018.65 1018.75 1018.87 1018.83 1018.93 1019.01 1019.07 1019.13 1019.27 1019.41 1019.55 1019.65 1019.75 1019.73 1019.63 1019.63 1019.63 1019.77 1019.97 1020.29 1020.47 1020.65 1020.87 1020.93 1021.07 1021.05 1020.99 1021.09 1021.25 1021.51 1021.77 1021.87 1022.03
1017.93 1018.09 1018.13 1018.17 1018.21 1018.23 1018.23 1018.19 1018.25 1018.35 1018.43 1018.45 1018.59 1018.63 1018.75 1018.81 1018.89 1019.01 1019.13 1019.25 1019.43 1019.57 1019.57 1019.57 1019.55 1019.57 1019.65 1019.85 1020.03 1020.17 1020.33 1020.41 1020.47 1020.67 1020.71 1020.59 1020.77 1020.93 1021.13 1021.27 1021.37 1021.53
1017.69 1017.81 1017.87 1017.97 1017.99 1018.01 1018.03 1018.01 1018.03 1018.05 1018.05 1018.19 1018.23 1018.23 1018.43 1018.49 1018.57 1018.77 1018.93 1019.07 1019.23 1019.27 1019.39 1019.43 1019.41 1019.35 1019.47 1019.61 1019.71 1019.81 1019.87 1019.95 1020.05 1020.19 1020.29 1020.17 1020.13 1020.39 1020.57 1020.67 1020.89 1021.15
1017.57 1017.61 1017.67 1017.69 1017.75 1017.79 1017.83 1017.81 1017.79 1017.75 1017.83 1017.85 1017.85 1017.95 1018.09 1018.13 1018.25 1018.45 1018.65 1018.79 1018.95 1019.07 1019.11 1019.15 1019.17 1019.19 1019.19 1019.35 1019.41 1019.41 1019.39 1019.47 1019.49 1019.59 1019.65 1019.71 1019.73 1019.59 1019.75 1020.09 1020.49 1020.63
1017.43 1017.49 1017.63 1017.61 1017.65 1017.61 1017.59 1017.53 1017.55 1017.55 1017.61 1017.63 1017.61 1017.75 1017.79 1017.93 1017.99 1018.07 1018.27 1018.45 1018.61 1018.71 1018.83 1018.83 1018.89 1018.95 1019.03 1019.09 1019.07 1019.05 1019.03 1019.03 1019.13 1019.25 1019.31 1019.25 1019.05 1018.95 1019.07 1019.33 1019.49 1019.89
1017.41 1017.61 1017.59 1017.53 1017.51 1017.49 1017.35 1017.33 1017.37 1017.41 1017.49 1017.47 1017.53 1017.55 1017.55 1017.69 1017.81 1017.93 1018.03 1018.17 1018.27 1018.33 1018.39 1018.49 1018.51 1018.59 1018.69 1018.73 1018.79 1018.79 1018.71 1018.67 1018.73 1018.83 1018.89 1018.87 1018.81 1018.79 1018.83 1018.95 1019.21 1019.37
1017.33 1017.41 1017.35 1017.29 1017.29 1017.25 1017.15 1017.15 1017.23 1017.29 1017.29 1017.31 1017.33 1017.25 1017.29 1017.39 1017.49 1017.65 1017.73 1017.83 1017.97 1017.99 1017.97 1017.99 1018.11 1018.21 1018.27 1018.25 1018.25 1018.31 1018.33 1018.31 1018.29 1018.35 1018.39 1018.45 1018.45 1018.43 1018.39 1018.35 1018.47 1018.79
1017.19 1017.17 1017.21 1017.25 1017.21 1017.11 1017.13 1017.19 1017.15 1017.11 1017.11 1016.99 1017.01 1017.03 1016.99 1017.05 1017.17 1017.25 1017.37 1017.47 1017.41 1017.45 1017.53 1017.61 1017.73 1017.89 1017.97 1017.95 1017.89 1017.89 1017.95 1017.97 1017.99 1017.97 1017.99 1018.05 1018.03 1018.05 1018.03 1017.97 1017.95 1018.09
1016.93 1017.01 1017.11 1017.11 1017.11 1017.13 1017.11 1017.05 1017.05 1017.01 1016.89 1016.81 1016.87 1016.83 1016.73 1016.67 1016.69 1016.77 1016.81 1017.03 1016.95 1016.99 1016.95 1016.95 1017.07 1017.29 1017.39 1017.43 1017.51 1017.53 1017.63 1017.63 1017.61 1017.57 1017.55 1017.53 1017.55 1017.65 1017.69 1017.69 1017.63 1017.67
1016.83 1016.87 1016.91 1016.87 1016.87 1016.91 1016.89 1016.85 1016.83 1016.77 1016.73 1016.69 1016.63 1016.49 1016.45 1016.41 1016.41 1016.47 1016.55 1016.55 1016.57 1016.61 1016.59 1016.67 1016.81 1016.81 1016.83 1016.91 1017.01 1017.09 1017.17 1017.17 1017.17 1017.13 1017.11 1017.05 1017.01 1017.07 1017.19 1017.29 1017.33 1017.29
1016.73 1016.67 1016.61 1016.61 1016.69 1016.67 1016.65 1016.67 1016.61 1016.55 1016.49 1016.39 1016.25 1016.19 1016.19 1016.23 1016.35 1016.43 1016.35 1016.17 1016.17 1016.21 1016.29 1016.37 1016.33 1016.29 1016.31 1016.39 1016.45 1016.57 1016.65 1016.67 1016.69 1016.67 1016.69 1016.67 1016.67 1016.67 1016.69 1016.71 1016.63 1016.63
1016.67 1016.49 1016.47 1016.41 1016.39 1016.51 1016.49 1016.47 1016.39 1016.35 1016.31 1016.23 1016.21 1016.19 1016.13 1016.17 1016.29 1016.15 1015.97 1015.95 1015.87 1015.77 1015.77 1015.79 1015.77 1015.77 1015.93 1016.07 1016.11 1016.15 1016.35 1016.41 1016.41 1016.29 1016.29 1016.25 1016.23 1016.23 1016.21 1016.33 1016.37 1016.23
1016.69 1016.59 1016.47 1016.33 1016.39 1016.31 1016.25 1016.25 1016.23 1016.21 1016.17 1016.11 1016.09 1016.01 1015.93 1016.03 1016.01 1015.77 1015.67 1015.61 1015.53 1015.45 1015.35 1015.21 1015.17 1015.25 1015.49 1015.55 1015.65 1015.71 1015.89 1015.99 1015.97 1015.93 1015.83 1015.77 1015.73 1015.71 1015.65 1015.75 1015.85 1016.05
1016.69 1016.57 1016.39 1016.27 1016.19 1016.19 1016.15 1016.13 1016.07 1016.01 1015.99 1015.95 1015.75 1015.63 1015.77 1015.77 1015.49 1015.45 1015.31 1015.25 1015.19 1015.07 1014.91 1014.73 1014.67 1014.67 1014.83 1014.91 1015.11 1015.27 1015.41 1015.57 1015.49 1015.43 1015.45 1015.33 1015.35 1015.33 1015.27 1015.25 1015.31 1015.41
1016.65 1016.55 1016.35 1016.19 1016.13 1016.09 1016.05 1015.93 1015.89 1015.75 1015.65 1015.61 1015.55 1015.57 1015.53 1015.31 1015.25 1015.17 1014.97 1014.93 1014.83 1014.73 1014.47 1014.27 1014.19 1014.13 1014.21 1014.33 1014.57 1014.73 1014.89 1015.07 1014.99 1014.97 1014.95 1014.79 1014.69 1014.65 1014.69 1014.73 1014.71 1014.65
1016.71 1016.61 1016.43 1016.23 1016.05 1015.97 1015.83 1015.71 1015.63 1015.53 1015.47 1015.39 1015.37 1015.25 1015.19 1014.97 1014.87 1014.79 1014.63 1014.69 1014.59 1014.43 1014.17 1013.85 1013.63 1013.75 1013.87 1013.93 1014.03 1014.21 1014.39 1014.61 1014.49 1014.55 1014.47 1014.23 1014.15 1014.15 1014.13 1014.15 1014.21 1014.29
1016.79 1016.63 1016.45 1016.21 1015.97 1015.79 1015.63 1015.39 1015.31 1015.21 1015.09 1015.03 1015.05 1014.95 1014.89 1014.79 1014.63 1014.59 1014.41 1014.29 1014.09 1014.11 1014.01 1013.53 1013.25 1013.53 1013.53 1013.55 1013.67 1013.73 1013.89 1014.03 1014.01 1014.11 1013.99 1013.83 1013.75 1013.75 1013.83 1013.85 1013.87 1013.85
1016.83 1016.65 1016.37 1016.09 1015.83 1015.61 1015.39 1015.23 1015.09 1014.89 1014.85 1014.87 1014.75 1014.55 1014.51 1014.35 1014.23 1014.07 1013.95 1013.89 1013.79 1013.79 1013.67 1013.19 1012.99 1013.17 1013.23 1013.15 1013.29 1013.37 1013.65 1013.63 1013.65 1013.69 1013.49 1013.31 1013.13 1013.23 1013.39 1013.29 1013.23 1013.35
1016.97 1016.79 1016.49 1016.17 1015.91 1015.73 1015.43 1015.19 1015.07 1014.91 1014.77 1014.69 1014.55 1014.25 1014.07 1013.83 1013.77 1013.61 1013.47 1013.47 1013.39 1013.23 1013.13 1012.95 1012.49 1012.69 1012.85 1012.79 1012.89 1012.99 1013.17 1013.23 1013.21 1013.23 1012.89 1012.77 1012.69 1012.77 1012.75 1012.63 1012.55 1012.67
1017.19 1016.95 1016.71 1016.37 1016.11 1015.81 1015.61 1015.29 1015.07 1014.87 1014.63 1014.63 1014.47 1014.29 1013.89 1013.67 1013.59 1013.39 1013.07 1012.95 1012.85 1012.67 1012.55 1012.57 1012.17 1012.21 1012.39 1012.39 1012.47 1012.55 1012.71 1012.77 1012.79 1012.77 1012.55 1012.19 1012.43 1012.37 1012.23 1012.27 1012.15 1012.31
1017.29 1017.07 1016.81 1016.59 1016.21 1015.87 1015.65 1015.43 1015.15 1014.89 1014.67 1014.57 1014.37 1014.31 1013.99 1013.63 1013.51 1013.29 1012.97 1012.49 1012.43 1012.43 1012.25 1012.15 1012.03 1011.79 1011.99 1012.05 1012.03 1012.13 1012.21 1012.35 1012.35 1012.37 1011.97 1011.81 1012.05 1011.93 1011.81 1011.81 1011.95 1011.99
Wind_Speed
8 6 8 8 8 8 8 8 7 8 8 8 8 8 8 8 7 8 8 7 7 9 9 9 10 10 10 10 11 10 11 13 12 12 14 15 14 14 13 13 12 10
9 8 8 7 7 6 7 7 8 8 9 8 8 7 7 7 7 8 9 9 8 9 9 10 9 10 11 11 11 11 11 12 15 11 13 16 14 13 13 14 13 12
8 8 9 9 10 9 9 8 7 8 8 8 8 7 7 7 8 7 8 9 10 10 10 9 9 10 11 11 11 12 12 13 14 12 13 14 13 13 14 14 12 13
9 10 9 9 8 8 7 7 7 7 6 7 8 8 8 7 7 8 9 9 10 10 10 10 11 10 11 11 11 11 13 13 13 10 11 10 11 12 12 11 11 11
9 9 8 8 7 7 6 8 8 8 8 8 6 6 7 7 8 9 8 8 9 9 9 11 11 11 10 10 11 11 12 12 12 12 11 12 12 12 11 10 12 13
6 7 7 7 8 8 8 9 9 8 8 7 8 7 8 8 9 9 9 9 8 9 9 9 9 9 9 10 10 10 11 11 10 12 13 14 13 12 10 11 13 14
8 6 8 7 7 8 9 9 8 8 8 8 6 8 7 8 9 9 9 10 9 9 10 10 9 9 8 8 9 11 11 12 12 12 14 12 11 12 11 11 12 13
8 6 7 7 8 8 9 9 8 8 8 7 8 8 8 9 10 9 8 9 9 10 10 10 10 10 9 9 10 11 12 11 12 13 14 14 13 14 13 11 11 13
6 7 7 7 8 8 8 9 9 7 7 9 9 8 7 9 9 9 8 8 9 9 10 10 10 10 9 9 10 12 13 13 13 13 15 15 14 14 14 13 13 13
7 6 6 7 8 8 9 8 8 8 7 9 8 7 8 8 8 9 8 9 9 10 10 10 10 10 10 9 11 12 13 13 13 12 13 14 15 15 15 14 15 14
6 5 7 8 9 8 10 9 8 7 7 8 7 8 8 7 7 6 8 9 10 10 11 10 11 10 11 11 11 11 12 13 13 13 13 14 14 13 13 13 13 14
6 6 8 9 9 9 10 9 7 7 7 7 7 9 8 8 8 7 9 10 10 10 10 10 10 10 11 12 13 12 12 13 13 13 13 14 14 14 14 14 14 15
6 7 7 7 8 9 7 6 7 7 7 9 8 8 9 9 8 9 8 10 11 11 11 11 10 10 11 12 12 12 13 13 13 13 13 13 13 14 14 14 14 14
6 6 6 7 7 6 7 7 7 7 8 8 7 9 10 10 10 10 10 9 11 11 11 10 11 11 12 12 12 12 12 13 13 13 13 13 12 12 12 13 13 13
5 4 5 6 6 6 7 8 7 8 7 8 8 9 9 10 9 9 9 10 11 11 11 10 10 11 11 11 12 13 12 13 14 14 14 14 14 14 13 13 12 13
5 5 5 5 5 7 7 7 7 8 8 9 10 10 9 9 8 8 9 11 11 11 10 10 10 9 12 18 16 12 12 12 12 13 13 13 13 13 13 13 14 13
5 6 5 6 6 6 6 7 8 8 8 9 9 8 9 8 7 10 11 10 11 11 11 11 10 10 15 17 19 20 14 11 12 13 13 13 14 14 14 13 13 14
6 6 6 6 5 7 7 7 7 7 8 8 8 9 9 7 9 11 11 10 10 10 11 11 11 12 17 18 20 20 18 14 12 13 13 13 14 14 14 13 13 12
5 6 6 6 6 6 6 6 7 7 8 8 10 9 6 8 11 10 11 11 11 12 12 12 11 14 18 20 20 20 21 18 13 13 13 13 13 14 14 14 12 12
6 6 7 7 7 6 6 7 7 8 8 8 7 6 8 10 9 11 11 11 11 12 13 12 12 14 19 19 19 20 21 19 14 14 14 15 15 15 14 14 15 15
6 6 7 7 7 6 6 7 7 7 7 7 7 8 9 10 10 11 11 10 11 11 12 13 12 15 17 19 19 20 20 18 14 13 13 14 14 14 14 14 14 13
7 8 7 7 7 7 6 8 7 8 9 7 7 7 8 8 9 8 10 11 11 11 12 14 13 15 17 18 19 19 20 14 12 13 14 14 14 14 13 12 12 13
8 9 9 9 9 9 9 8 8 9 8 5 8 8 8 9 10 10 10 10 11 11 13 14 13 13 17 18 18 20 16 11 11 11 13 15 15 13 13 14 14 13
9 9 10 10 9 10 10 10 8 8 8 6 8 9 9 10 9 10 9 9 11 12 12 13 13 12 16 18 18 19 16 12 11 11 14 14 13 13 12 13 15 20
8 8 8 9 9 9 9 10 10 10 9 6 8 8 10 8 8 9 10 9 10 12 14 15 14 12 15 17 18 18 15 11 11 11 13 14 12 13 12 12 12 13
7 8 7 8 9 10 9 9 8 9 8 8 8 7 9 9 8 9 11 12 9 10 11 12 13 12 10 16 17 18 19 13 10 11 14 14 12 12 12 11 12 11
Wind_Direction
217 212 219 218 223 218 217 215 213 215 218 217 222 226 227 234 220 220 225 221 214 210 208 205 201 201 201 197 198 200 201 205 206 208 209 207 213 210 210 209 211 211
217 215 218 222 227 221 223 216 216 213 219 217 219 220 223 224 225 214 216 218 215 216 211 207 204 204 201 198 197 200 206 208 211 206 209 207 210 208 214 214 213 215
219 218 216 217 220 220 220 220 217 216 217 217 215 215 218 212 221 216 223 218 216 215 214 211 209 207 205 203 198 201 206 209 214 207 206 210 210 209 212 210 213 212
223 220 221 223 221 224 218 219 221 220 220 219 214 213 211 210 213 221 221 225 225 219 215 211 210 207 209 208 202 205 208 210 211 206 212 216 214 214 215 212 212 213
222 224 226 228 226 226 220 220 222 220 219 221 219 211 213 211 212 221 224 224 227 233 224 218 212 209 208 210 206 208 210 214 211 206 207 212 214 209 213 209 213 216
233 227 228 227 225 222 224 225 225 221 223 224 219 209 212 212 214 217 219 222 224 228 233 230 221 218 210 208 207 212 210 213 217 214 212 211 211 208 207 210 213 215
230 222 229 226 231 224 228 229 228 222 222 222 217 218 207 214 217 218 219 221 225 227 230 230 226 220 214 211 209 213 214 215 216 212 215 216 211 214 211 212 214 217
231 226 226 227 229 227 228 230 227 222 218 216 217 220 203 214 216 219 219 220 223 229 231 232 230 226 219 212 212 214 218 216 216 214 217 218 208 212 210 211 211 217
233 230 225 229 230 230 230 229 228 227 216 218 220 219 211 211 214 215 218 218 222 227 229 230 231 232 225 217 219 218 220 220 218 216 215 215 215 214 209 207 210 214
234 233 231 234 234 233 234 231 227 227 220 223 224 219 218 218 217 217 215 218 223 226 228 230 231 230 229 226 224 222 224 224 222 223 223 223 220 217 212 205 208 210
243 233 235 236 236 235 237 234 230 229 223 225 222 226 224 216 220 215 222 222 224 226 228 229 231 230 229 228 228 228 229 227 225 224 223 223 223 220 215 211 211 215
240 234 235 236 236 238 238 234 232 229 228 228 218 225 224 219 215 213 215 222 226 230 229 231 231 230 230 229 228 228 229 229 228 226 226 226 226 225 220 213 211 213
244 240 239 240 239 242 245 241 236 233 227 230 220 223 224 223 217 217 218 220 225 224 225 228 231 231 232 232 232 230 230 230 231 230 228 228 229 227 226 222 217 216
251 249 246 245 246 247 247 245 243 239 235 236 227 227 229 228 223 217 219 218 227 230 231 229 230 231 230 231 231 231 231 232 231 231 230 230 231 230 228 226 221 218
275 261 251 248 245 244 244 243 240 240 240 237 233 234 233 234 234 228 227 227 230 232 236 232 233 231 230 228 230 230 229 232 231 231 230 230 229 227 223 224 222 219
282 276 262 255 252 246 245 244 242 241 238 238 237 237 238 237 237 237 235 235 234 234 233 233 233 233 230 227 225 227 228 232 233 234 232 233 234 234 232 226 222 218
288 279 272 263 254 253 250 245 243 240 240 242 245 243 241 240 233 236 236 237 237 236 234 232 234 233 231 230 230 229 230 233 234 236 232 232 231 231 232 227 226 223
283 282 276 269 266 257 253 250 248 244 244 243 246 245 243 236 237 238 240 238 240 241 240 237 238 232 231 232 232 232 229 231 235 237 235 235 233 232 233 230 229 228
298 295 287 285 274 267 263 258 249 248 246 244 243 243 245 238 239 239 241 240 240 243 243 240 243 232 231 232 233 233 232 230 237 235 237 238 235 234 233 231 228 225
311 305 297 288 283 273 264 258 253 248 247 245 251 247 240 246 245 244 244 242 241 243 247 246 244 237 234 234 233 234 234 232 238 236 238 238 236 233 234 234 230 228
319 310 300 295 288 280 270 264 258 260 253 248 244 241 242 243 244 246 246 246 247 245 249 249 246 241 240 237 235 235 236 235 239 240 241 242 240 238 236 235 234 235
331 321 313 306 300 293 282 276 268 258 260 253 247 248 247 252 255 248 252 247 245 246 251 254 251 243 243 241 238 237 235 235 238 240 243 244 243 240 238 237 234 229
333 326 321 318 315 312 302 293 287 278 268 252 257 250 248 247 247 245 245 248 250 246 248 255 256 243 243 243 240 238 236 239 238 240 243 243 243 241 237 237 232 228
327 326 320 318 317 313 307 301 291 282 276 261 257 264 258 250 249 254 248 243 246 247 242 252 256 243 240 244 241 238 231 236 236 239 245 245 248 243 239 239 234 231
317 317 314 312 312 307 305 302 299 293 290 282 265 262 265 266 258 258 259 249 243 247 246 246 257 251 239 243 240 237 233 234 236 239 246 246 246 249 244 240 241 233
311 311 307 307 305 302 299 292 292 293 288 280 274 265 271 270 264 262 264 262 252 250 252 245 252 255 241 241 241 239 234 233 235 238 243 248 244 247 250 242 238 238